Flag for China Weather past 2 weeks in Tianjin, Tianjin Municipality, China

Now
81 °F

Overcast.


Feels Like: 85 °F
Forecast: 74 / 94 °F
Wind: 3 mph from South

Location: Tianjin / Zhangguizhu

Current Time: Jul 30, 2014 at 9:56:29 AM

Latest Report: Jul 30, 2014 at 9:00 AM


Visibility: 1 mi

Pressure: 29.65 "Hg

Humidity: 74%

Dew point: 72 °F

Location of TianjinLocation

Historic Weather in Tianjin — Graph

°F

Tianjin temperature yesterday

Maximum temperature yesterday: 93 °F (at 1:00 PM)
Minimum temperature yesterday: 79 °F (at 3:00 AM)
Average temperature yesterday: 85 °F

Past Weeks' High & Low Weather Summary

 TemperatureHumidityPressure
High99 °F (Jul 20, 3:00 PM)94% (Jul 17, 2:00 AM)29.86 "Hg (Jul 17, 2:00 AM)
Low70 °F (Jul 17, 3:30 AM)26% (Jul 26, 2:30 PM)29.53 "Hg (Jul 21, 3:00 AM)
Average84 °F60%29.69 "Hg
* Reported Jul 15 8:00 AM — Jul 30 8:30 AM, Tianjin, Weather by CustomWeather, © 2014

Note: Actual official high and low records may vary slightly from our data, if they occured in-between our weather recording intervals... More about our weather records

Advertising

Tianjin weather history for previous 24 hours

 ConditionsComfort  
Time TempWeatherWind HumidityBarometerVisibility
8:30 AM
Jul 30
81 °FOvercast.6 mph74%29.65 "Hg1 mi
8:00 AM81 °FFog.8 mph74%29.65 "Hg1 mi
7:30 AM81 °FFog.8 mph74%29.65 "Hg1 mi
7:00 AM79 °FFog.6 mph84%29.62 "Hg1 mi
6:30 AM79 °FFog.8 mph84%29.62 "Hg1 mi
6:00 AM79 °FFog.6 mph84%29.62 "Hg1 mi
5:30 AM79 °FFog.6 mph84%29.62 "Hg1 mi
5:00 AM79 °FFog.6 mph84%29.62 "Hg1 mi
4:30 AM79 °FFog.6 mph84%29.62 "Hg1 mi
4:00 AM79 °FFog.8 mph84%29.62 "Hg1 mi
3:30 AM79 °FLight rain. Fog.6 mph84%29.62 "Hg1 mi
3:00 AM81 °FLight rain. Fog.10 mph79%29.59 "Hg2 mi
2:30 AM81 °FHaze.10 mph74%29.59 "Hg2 mi
2:00 AM81 °FHaze.8 mph70%29.59 "Hg2 mi
1:30 AM81 °FHaze.10 mph70%29.59 "Hg3 mi
1:00 AM82 °FHaze.10 mph62%29.59 "Hg3 mi
12:30 AM82 °FClear.13 mph62%29.59 "Hg4 mi
12:00 AM82 °FClear.13 mph62%29.62 "Hg4 mi
11:30 PM
Jul 29
82 °FClear.13 mph62%29.62 "Hg4 mi
11:00 PM82 °FHaze.10 mph62%29.65 "Hg3 mi
10:30 PM82 °FHaze.15 mph62%29.65 "Hg3 mi
10:00 PM82 °FHaze.15 mph62%29.62 "Hg3 mi
9:30 PM82 °FHaze.15 mph62%29.62 "Hg3 mi
9:00 PM84 °FHaze.15 mph58%29.59 "Hg3 mi
8:30 PM84 °FHaze.10 mph58%29.59 "Hg3 mi
8:00 PM84 °FHaze.13 mph55%29.59 "Hg3 mi
7:30 PM86 °FHaze.13 mph52%29.59 "Hg3 mi
7:00 PM86 °FHaze.13 mph55%29.59 "Hg2 mi
6:30 PM86 °FHaze.10 mph55%29.59 "Hg2 mi
6:00 PM88 °FHaze.15 mph49%29.56 "Hg2 mi
5:30 PM88 °FHaze.15 mph49%29.56 "Hg2 mi
5:00 PM90 °FHaze.17 mph46%29.59 "Hg2 mi
4:30 PM90 °FHaze.17 mph49%29.59 "Hg2 mi
4:00 PM91 °FHaze.17 mph44%29.59 "Hg2 mi
3:30 PM91 °FScattered clouds.15 mph46%29.59 "Hg2 mi
3:00 PM93 °FPartly sunny.15 mph41%29.59 "Hg2 mi
2:30 PM93 °FPartly sunny.13 mph36%29.62 "Hg3 mi
2:00 PM93 °FScattered clouds.10 mph36%29.62 "Hg3 mi
1:30 PM93 °FPartly sunny.13 mph36%29.62 "Hg3 mi
1:00 PM93 °FScattered clouds.10 mph39%29.65 "Hg2 mi
12:30 PM91 °FHaze.10 mph44%29.65 "Hg2 mi
12:00 PM91 °FHaze.13 mph44%29.65 "Hg2 mi
11:30 AM91 °FHaze.10 mph46%29.68 "Hg2 mi
10:30 AM90 °FHaze.8 mph49%29.68 "Hg2 mi
10:00 AM88 °FHaze.6 mph52%29.68 "Hg1 mi
9:30 AM88 °FHaze.8 mph52%29.68 "Hg1 mi
9:00 AM86 °FHaze.8 mph55%29.68 "Hg1 mi
Weather by CustomWeather, © 2014

See weather overviewHow to use our weather pages